User: anonymous   Login
Location: St Andrew
(49.4460°N, 2.5750°W)
Time: 22:31:32
(UTC+01:00)
Language:

Iridium 66 - Orbit

View from above orbital plane
View from above orbital plane
View from above satellite
View from above satellite

Ground track
Ground track

The orbit data is extracted from the following two-line orbital elements,

1 25289U 98021E   16145.35943525  .00000198  00000-0  63543-4 0  9992
2 25289  86.3980  26.3217 0002103  87.6128 324.6939 14.34219067949286
Epoch (UTC): 24 May 2016 08:37:35
Eccentricity: 0.0002103
inclination: 86.3980°
perigee height: 776 km
apogee height: 779 km
right ascension of ascending node: 26.3217°
argument of perigee: 87.6128°
revolutions per day: 14.34219067
mean anomaly at epoch: 324.6939°
orbit number at epoch: 94928

The dashed part of the orbit path shows where the satellite is in the earth's shadow,  

DLR